TimeMDT,TemperatureF,Dew PointF,Humidity,Sea Level PressureIn,VisibilityMPH,Wind Direction,Wind SpeedMPH,Gust SpeedMPH,PrecipitationIn,Events,Conditions,WindDirDegrees,DateUTC
12:53 AM,32.0,19.9,61,30.14,10.0,NE,8.1,-,N/A,,Clear,50,2013-04-01 06:53:00
1:53 AM,32.0,19.9,61,30.13,10.0,NE,8.1,-,N/A,,Clear,40,2013-04-01 07:53:00
2:53 AM,27.0,19.0,72,30.16,10.0,SE,3.5,-,N/A,,Clear,140,2013-04-01 08:53:00
4:53 AM,18.0,14.0,84,30.19,10.0,Calm,Calm,-,N/A,,Clear,0,2013-04-01 10:53:00
5:53 AM,19.0,17.1,92,30.20,10.0,East,3.5,-,N/A,,Clear,80,2013-04-01 11:53:00
6:35 AM,17.6,15.8,93,30.19,10.0,Calm,Calm,-,N/A,,Scattered Clouds,0,2013-04-01 12:35:00
6:44 AM,19.4,14.0,80,30.19,8.0,Calm,Calm,-,N/A,,Mostly Cloudy,0,2013-04-01 12:44:00
6:53 AM,19.9,16.0,85,30.22,9.0,Calm,Calm,-,N/A,,Overcast,0,2013-04-01 12:53:00
7:53 AM,28.0,24.1,85,30.22,10.0,ESE,4.6,-,N/A,,Overcast,110,2013-04-01 13:53:00
8:53 AM,30.0,24.1,79,30.25,10.0,South,5.8,-,N/A,,Overcast,170,2013-04-01 14:53:00
9:31 AM,33.8,24.8,70,30.20,10.0,South,5.8,-,N/A,,Scattered Clouds,170,2013-04-01 15:31:00
10:53 AM,39.0,25.0,57,30.24,10.0,South,9.2,-,N/A,,Clear,170,2013-04-01 16:53:00
11:53 AM,42.1,25.0,51,30.22,10.0,SSE,10.4,-,N/A,,Clear,160,2013-04-01 17:53:00
12:53 PM,45.0,26.1,48,30.18,10.0,SSE,6.9,-,N/A,,Clear,150,2013-04-01 18:53:00
2:53 PM,48.9,26.1,41,30.15,10.0,SE,9.2,16.1,N/A,,Partly Cloudy,130,2013-04-01 20:53:00
5:53 PM,46.9,25.0,42,30.16,10.0,SSE,8.1,-,N/A,,Clear,160,2013-04-01 23:53:00
6:53 PM,46.0,25.0,44,30.17,10.0,SSE,9.2,-,N/A,,Clear,150,2013-04-02 00:53:00
7:53 PM,37.0,23.0,57,30.18,10.0,SE,8.1,-,N/A,,Clear,140,2013-04-02 01:53:00
8:53 PM,35.1,23.0,61,30.20,10.0,SSE,6.9,-,N/A,,Clear,150,2013-04-02 02:53:00
9:53 PM,30.0,21.9,72,30.22,10.0,South,9.2,-,N/A,,Clear,180,2013-04-02 03:53:00
10:53 PM,32.0,25.0,75,30.19,10.0,South,8.1,-,N/A,,Clear,190,2013-04-02 04:53:00
11:53 PM,32.0,25.0,75,30.17,10.0,SSW,9.2,-,N/A,,Clear,200,2013-04-02 05:53:00